GW5498 Weather Reports


Display with metric or nautical units.
time (UTC)temp
F
wind
direction
speed
MPH
gust
MPH
rain 1hr
in
rain 24hr
in
rain mn
in
humidity
%
barometer
mb
20260506175938 48 310 1.0 6.0 0.00 0.00 0.00 73 1014.8
20260506175436 49 12 2.0 6.0 0.00 0.00 0.00 72 1014.8
20260506174935 49 149 1.0 5.0 0.00 0.00 0.00 72 1014.7
20260506174435 49 79 1.0 5.0 0.00 0.00 0.00 72 1014.7
20260506173935 49 269 1.0 5.0 0.00 0.00 0.00 72 1014.7
20260506173434 49 71 1.0 5.0 0.00 0.00 0.00 72 1014.7
20260506172934 49 0 1.0 4.0 0.00 0.00 0.00 71 1014.7
20260506172434 49 0 1.0 5.0 0.00 0.00 0.00 71 1014.6
20260506171934 49 0 1.0 5.0 0.00 0.00 0.00 71 1014.6
20260506171433 49 23 2.0 5.0 0.00 0.00 0.00 71 1014.6
20260506170933 49 245 2.0 6.0 0.00 0.00 0.00 71 1014.6
20260506170433 49 65 2.0 6.0 0.00 0.00 0.00 70 1014.6
20260506165932 50 337 2.0 6.0 0.00 0.00 0.00 70 1014.5
20260506165431 50 349 2.0 6.0 0.00 0.00 0.00 70 1014.5
20260506164928 50 25 2.0 5.0 0.00 0.00 0.00 71 1014.5
20260506164428 50 41 2.0 4.0 0.00 0.00 0.00 71 1014.5
20260506163925 50 149 2.0 5.0 0.00 0.00 0.00 70 1014.6
20260506163425 50 291 2.0 5.0 0.00 0.00 0.00 69 1014.5
20260506162926 50 60 2.0 7.0 0.00 0.00 0.00 68 1014.5
20260506162426 50 60 2.0 7.0 0.00 0.00 0.00 68 1014.5
20260506161925 51 349 1.0 5.0 0.00 0.00 0.00 68 1014.5
20260506161425 51 129 2.0 5.0 0.00 0.00 0.00 68 1014.5
20260506160925 50 83 2.0 6.0 0.00 0.00 0.00 68 1014.5
20260506160424 50 33 2.0 8.0 0.00 0.00 0.00 68 1014.5
20260506155923 50 4 2.0 8.0 0.00 0.00 0.00 67 1014.5
20260506155424 50 49 2.0 7.0 0.00 0.00 0.00 69 1014.5
20260506154920 50 167 2.0 7.0 0.00 0.00 0.00 68 1014.5
20260506154417 50 94 2.0 6.0 0.00 0.00 0.00 68 1014.5
20260506153917 50 202 2.0 6.0 0.00 0.00 0.00 68 1014.4
20260506153414 50 102 3.0 6.0 0.00 0.00 0.00 69 1014.5
20260506152914 50 87 2.0 7.0 0.00 0.00 0.00 68 1014.5
20260506152414 50 57 2.0 7.0 0.00 0.00 0.00 69 1014.5
20260506151914 50 149 2.0 6.0 0.00 0.00 0.00 69 1014.5
20260506151414 50 14 3.0 6.0 0.00 0.00 0.00 68 1014.6
20260506150914 50 28 3.0 7.0 0.00 0.00 0.00 69 1014.6
20260506150413 50 29 3.0 7.0 0.00 0.00 0.00 70 1014.6
20260506145913 51 62 3.0 7.0 0.00 0.00 0.00 70 1014.7
20260506145413 51 209 2.0 6.0 0.00 0.00 0.00 69 1014.7
20260506144916 51 227 2.0 8.0 0.00 0.00 0.00 69 1014.6
20260506144411 51 67 2.0 8.0 0.00 0.00 0.00 67 1014.6
20260506143911 51 205 2.0 7.0 0.00 0.00 0.00 66 1014.6
20260506143410 51 49 2.0 7.0 0.00 0.00 0.00 67 1014.7
20260506142911 51 0 2.0 7.0 0.00 0.00 0.00 67 1014.6
20260506142411 51 119 2.0 6.0 0.00 0.00 0.00 66 1014.6
20260506141911 52 341 2.0 6.0 0.00 0.00 0.00 65 1014.6
20260506141411 52 324 2.0 7.0 0.00 0.00 0.00 65 1014.6
20260506140911 52 326 2.0 7.0 0.00 0.00 0.00 65 1014.6
20260506140410 51 110 2.0 6.0 0.00 0.00 0.00 65 1014.6
20260506135909 51 114 2.0 9.0 0.00 0.00 0.00 65 1014.6
20260506135410 51 351 3.0 9.0 0.00 0.00 0.00 66 1014.7
20260506134908 51 28 3.0 9.0 0.00 0.00 0.00 65 1014.6
20260506134408 51 98 3.0 8.0 0.00 0.00 0.00 66 1014.7
20260506133908 51 15 3.0 9.0 0.00 0.00 0.00 65 1014.7
20260506133408 52 68 3.0 9.0 0.00 0.00 0.00 66 1014.6
20260506132909 52 15 2.0 9.0 0.00 0.00 0.00 66 1014.7
20260506132409 52 118 2.0 7.0 0.00 0.00 0.00 65 1014.7
20260506131908 52 245 2.0 7.0 0.00 0.00 0.00 64 1014.7
20260506130627 53 29 3.0 8.0 0.00 0.00 0.00 64 1014.7
20260506125905 53 37 3.0 9.0 0.00 0.00 0.00 65 1014.6
20260506124906 53 24 3.0 6.0 0.00 0.00 0.00 64 1014.5
20260506123905 51 352 3.0 8.0 0.00 0.00 0.00 67 1014.6
20260506123406 51 16 3.0 8.0 0.00 0.00 0.00 69 1014.7
20260506122905 51 19 3.0 8.0 0.00 0.00 0.00 68 1014.7
20260506122406 51 4 3.0 8.0 0.00 0.00 0.00 69 1014.7
20260506121906 52 339 2.0 8.0 0.00 0.00 0.00 66 1014.6
20260506121405 52 79 2.0 10.0 0.00 0.00 0.00 63 1014.6
20260506120903 51 353 3.0 10.0 0.00 0.00 0.00 62 1014.6
20260506120408 52 22 3.0 9.0 0.00 0.00 0.00 62 1014.7
20260506115908 52 70 3.0 9.0 0.00 0.00 0.00 63 1014.7
20260506115622 52 12 3.0 9.0 0.00 0.00 0.00 63 1014.7
20260506115131 52 59 4.0 9.0 0.00 0.00 0.00 63 1014.7
20260506114400 52 328 4.0 11.0 0.00 0.00 0.00 62 1014.7
20260506113900 52 64 3.0 11.0 0.00 0.00 0.00 62 1014.7
20260506113400 51 38 3.0 9.0 0.00 0.00 0.00 65 1014.7
20260506112900 50 2 3.0 9.0 0.00 0.00 0.00 66 1014.7
20260506112400 50 0 3.0 9.0 0.00 0.00 0.00 67 1014.8
20260506111900 50 215 3.0 9.0 0.00 0.00 0.00 66 1014.9
20260506111400 50 3 3.0 7.0 0.00 0.00 0.00 66 1015.0
20260506110859 50 46 2.0 7.0 0.00 0.00 0.00 66 1014.9
20260506110359 50 54 2.0 8.0 0.00 0.00 0.00 64 1014.8
20260506105858 50 0 2.0 8.0 0.00 0.00 0.00 65 1014.8
20260506105359 50 2 3.0 10.0 0.00 0.00 0.00 67 1014.8
20260506104855 50 29 3.0 10.0 0.00 0.00 0.00 66 1014.9
20260506104355 50 10 3.0 10.0 0.00 0.00 0.00 65 1014.9
20260506103856 50 333 3.0 10.0 0.00 0.00 0.00 66 1014.9
20260506103356 51 345 4.0 10.0 0.00 0.00 0.00 65 1014.9
20260506102856 52 329 4.0 9.0 0.00 0.00 0.00 64 1014.7
20260506102355 53 18 4.0 9.0 0.00 0.00 0.00 59 1014.7
20260506101855 53 353 3.0 9.0 0.00 0.00 0.00 57 1014.7
20260506101354 53 48 3.0 8.0 0.00 0.00 0.00 61 1014.6
20260506100854 52 320 3.0 9.0 0.00 0.00 0.00 63 1014.8
20260506100354 51 359 3.0 9.0 0.00 0.00 0.00 61 1014.8
20260506095850 51 57 3.0 8.0 0.00 0.00 0.00 62 1014.7
20260506095350 51 342 3.0 8.0 0.00 0.00 0.00 64 1014.8
20260506094349 51 351 4.0 9.0 0.00 0.00 0.00 63 1014.8
20260506093350 52 51 4.0 9.0 0.00 0.00 0.00 62 1014.7
20260506092349 51 13 4.0 9.0 0.00 0.00 0.00 63 1014.8
20260506091344 52 9 4.0 8.0 0.00 0.00 0.00 65 1014.8
20260506090844 51 92 3.0 8.0 0.00 0.00 0.00 65 1014.8
20260506090344 50 307 4.0 15.0 0.00 0.00 0.00 67 1014.8
20260506085845 49 16 3.0 15.0 0.00 0.00 0.00 68 1014.9
20260506085345 48 73 3.0 10.0 0.00 0.00 0.00 69 1014.8
20260506084845 47 335 3.0 8.0 0.00 0.00 0.00 69 1014.9
20260506084345 48 350 4.0 8.0 0.00 0.00 0.00 70 1014.9
20260506083845 49 9 3.0 8.0 0.00 0.00 0.00 68 1014.8
20260506083345 49 3 3.0 8.0 0.00 0.00 0.00 69 1014.8
20260506082845 49 358 3.0 8.0 0.00 0.00 0.00 71 1014.8
20260506082344 49 314 3.0 9.0 0.00 0.00 0.00 73 1014.8
20260506081840 49 53 4.0 11.0 0.00 0.00 0.00 72 1014.7
20260506081340 48 22 3.0 11.0 0.00 0.00 0.00 72 1014.8
20260506080839 48 28 3.0 13.0 0.00 0.00 0.00 74 1014.8
20260506080339 47 349 3.0 13.0 0.00 0.00 0.00 75 1014.8
20260506072832 45 12 3.0 6.0 0.00 0.00 0.00 79 1014.9
20260506071828 45 333 3.0 9.0 0.00 0.00 0.00 80 1014.8
20260506070828 45 4 3.0 10.0 0.00 0.00 0.00 80 1014.7
20260506070329 45 284 2.0 10.0 0.00 0.00 0.00 81 1014.6
20260506062324 41 347 2.0 6.0 0.00 0.00 0.00 88 1014.4
20260506061829 40 344 2.0 4.0 0.00 0.00 0.00 89 1014.4
20260506061327 40 330 2.0 4.0 0.00 0.00 0.00 89 1014.4
20260506060827 40 13 2.0 4.0 0.00 0.00 0.00 89 1014.4
20260506060323 40 350 2.0 4.0 0.00 0.00 0.00 89 1014.3
20260506044831 38 335 1.0 3.0 0.00 0.00 0.00 89 1014.2
20260506044111 39 328 1.0 3.0 0.00 0.00 0.00 89 1014.3
20260506043832 39 338 1.0 5.0 0.00 0.00 0.00 88 1014.3
20260506043333 39 344 1.0 5.0 0.00 0.00 0.00 88 1014.3
20260506042611 39 294 1.0 4.0 0.00 0.00 0.00 88 1014.3
20260506042111 39 343 1.0 4.0 0.00 0.00 0.00 88 1014.3
20260506041557 39 350 1.0 4.0 0.00 0.00 0.00 88 1014.3
20260506041057 39 358 1.0 3.0 0.00 0.00 0.00 88 1014.2
20260506040542 40 298 1.0 4.0 0.00 0.00 0.00 87 1014.2
20260506040043 40 0 1.0 4.0 0.00 0.00 0.00 87 1014.2
20260506035525 40 355 0.0 2.0 0.00 0.00 0.00 87 1014.2
20260506035026 40 0 1.0 3.0 0.00 0.00 0.00 87 1014.2
20260506034525 40 0 2.0 4.0 0.00 0.00 0.00 87 1014.3
20260506034027 41 338 2.0 4.0 0.00 0.00 0.00 86 1014.3
20260506033753 41 303 1.0 4.0 0.00 0.00 0.00 86 1014.3
20260506033026 41 5 2.0 5.0 0.00 0.00 0.00 86 1014.3
20260506032525 41 21 2.0 7.0 0.00 0.00 0.00 86 1014.3
20260506032022 42 352 2.0 7.0 0.00 0.00 0.00 86 1014.3
20260506031516 42 18 3.0 8.0 0.00 0.00 0.00 86 1014.4
20260506031016 42 332 3.0 8.0 0.00 0.00 0.00 86 1014.4
20260506030512 42 2 2.0 5.0 0.00 0.00 0.00 85 1014.4
20260506030013 42 338 2.0 3.0 0.00 0.00 0.00 85 1014.4
20260506025502 42 308 2.0 4.0 0.00 0.00 0.00 85 1014.4
20260506024943 43 359 2.0 6.0 0.00 0.00 0.00 85 1014.4
20260506024429 43 3 3.0 6.0 0.00 0.00 0.00 85 1014.4
20260506023927 43 328 2.0 5.0 0.00 0.00 0.00 85 1014.4
20260506023427 43 25 2.0 6.0 0.00 0.00 0.00 85 1014.4
20260506022927 43 339 2.0 6.0 0.00 0.00 0.00 85 1014.4
20260506022426 43 14 2.0 5.0 0.00 0.00 0.00 85 1014.4
20260506021927 43 358 2.0 5.0 0.00 0.00 0.00 85 1014.4
20260506021431 43 350 2.0 5.0 0.00 0.00 0.00 85 1014.4
20260506020927 43 316 2.0 5.0 0.00 0.00 0.00 85 1014.4
20260506020427 43 303 2.0 5.0 0.00 0.00 0.00 85 1014.5
20260506015927 43 32 2.0 6.0 0.00 0.00 0.00 85 1014.5
20260506015425 43 336 3.0 6.0 0.00 0.00 0.00 85 1014.5
20260506014926 43 357 2.0 6.0 0.00 0.00 0.00 84 1014.6
20260506014432 43 342 2.0 4.0 0.00 0.00 0.00 84 1014.6
20260506013928 43 35 2.0 5.0 0.00 0.00 0.00 84 1014.5
20260506013417 44 326 2.0 5.0 0.00 0.00 0.00 84 1014.6
20260506012917 44 328 2.0 8.0 0.00 0.00 0.00 84 1014.6
20260506012416 44 353 2.0 8.0 0.00 0.00 0.00 84 1014.6
20260506011914 44 314 2.0 6.0 0.00 0.00 0.00 84 1014.7
20260506011404 44 318 3.0 7.0 0.00 0.00 0.00 84 1014.7
20260506010906 44 347 3.0 7.0 0.00 0.00 0.00 84 1014.7
20260506010405 44 339 2.0 6.0 0.00 0.00 0.00 83 1014.7
20260506005905 44 0 2.0 6.0 0.00 0.00 0.00 83 1014.7
20260506005400 44 334 2.0 6.0 0.00 0.00 0.00 83 1014.7
20260506004859 44 348 3.0 9.0 0.00 0.00 0.00 83 1014.7
20260506004354 44 328 3.0 9.0 0.00 0.00 0.00 83 1014.8
20260506003848 44 357 2.0 7.0 0.00 0.00 0.00 82 1014.8
20260506003345 44 17 2.0 4.0 0.00 0.00 0.00 82 1014.9
20260506002844 44 339 2.0 11.0 0.00 0.00 0.00 82 1014.9
20260506002555 44 35 3.0 11.0 0.00 0.00 0.00 82 1014.9
20260506001831 44 332 2.0 8.0 0.00 0.00 0.00 81 1015.0
20260506000828 44 9 3.0 7.0 0.00 0.00 0.00 81 1014.9
20260505235829 45 344 3.0 5.0 0.00 0.00 0.00 80 1014.9
20260505234829 45 298 3.0 6.0 0.00 0.00 0.00 80 1015.0
20260505233833 45 358 2.0 5.0 0.00 0.00 0.00 79 1015.0
20260505233330 45 24 2.0 5.0 0.00 0.00 0.00 79 1015.0
20260505232830 45 352 2.0 6.0 0.00 0.00 0.00 78 1015.0
20260505232325 45 342 2.0 6.0 0.00 0.00 0.00 78 1015.1
20260505231824 45 359 3.0 7.0 0.00 0.00 0.00 78 1015.1
20260505231324 45 352 3.0 7.0 0.00 0.00 0.00 77 1015.1
20260505230826 45 343 2.0 9.0 0.00 0.00 0.00 77 1015.2
20260505230325 45 2 2.0 9.0 0.00 0.00 0.00 77 1015.2
20260505225825 46 15 2.0 8.0 0.00 0.00 0.00 77 1015.2
20260505225324 46 27 2.0 6.0 0.00 0.00 0.00 77 1015.2
20260505224823 46 332 2.0 6.0 0.00 0.00 0.00 77 1015.1
20260505224322 46 354 2.0 6.0 0.00 0.00 0.00 77 1015.2
20260505224044 46 345 3.0 7.0 0.00 0.00 0.00 77 1015.2
20260505223544 46 57 3.0 9.0 0.00 0.00 0.00 76 1015.2
20260505223043 46 314 3.0 9.0 0.00 0.00 0.00 76 1015.1
20260505222317 46 106 3.0 7.0 0.00 0.00 0.00 76 1015.2
20260505221818 46 62 3.0 7.0 0.00 0.00 0.00 76 1015.2
20260505221317 46 0 4.0 8.0 0.00 0.00 0.00 76 1015.1
20260505220817 46 67 4.0 8.0 0.00 0.00 0.00 76 1015.1
20260505220317 46 47 3.0 8.0 0.00 0.00 0.00 76 1015.2
20260505215814 46 350 3.0 8.0 0.00 0.00 0.00 76 1015.2
20260505215312 46 6 3.0 9.0 0.00 0.00 0.00 77 1015.3
20260505214812 47 59 3.0 9.0 0.00 0.00 0.00 77 1015.3
20260505214311 47 57 2.0 7.0 0.00 0.00 0.00 78 1015.3
20260505213808 47 14 2.0 6.0 0.00 0.00 0.00 78 1015.3
20260505213308 47 14 2.0 7.0 0.00 0.00 0.00 78 1015.3
20260505212807 47 347 3.0 7.0 0.00 0.00 0.00 78 1015.3
20260505212308 47 96 3.0 8.0 0.00 0.00 0.00 78 1015.3
20260505211808 47 21 3.0 8.0 0.00 0.00 0.00 79 1015.3
20260505211308 47 120 3.0 8.0 0.00 0.00 0.00 79 1015.3
20260505210809 47 44 3.0 8.0 0.00 0.00 0.00 79 1015.2
20260505210308 47 128 2.0 8.0 0.00 0.00 0.00 79 1015.2
20260505205808 47 327 2.0 9.0 0.00 0.00 0.00 79 1015.2
20260505204807 48 7 3.0 9.0 0.00 0.00 0.00 79 1015.1
20260505203802 48 1 3.0 9.0 0.00 0.00 0.00 79 1015.1
20260505202802 48 355 3.0 10.0 0.00 0.00 0.00 78 1015.0
20260505201803 48 4 3.0 8.0 0.00 0.00 0.00 78 1014.9
20260505201304 48 24 3.0 7.0 0.00 0.00 0.00 78 1014.9
20260505200803 49 28 3.0 8.0 0.00 0.00 0.00 78 1014.8
20260505200306 49 26 3.0 9.0 0.00 0.00 0.00 78 1014.8
20260505195804 49 102 3.0 9.0 0.00 0.00 0.00 78 1014.7
20260505195304 49 39 3.0 8.0 0.00 0.00 0.00 78 1014.6
20260505194802 49 27 2.0 6.0 0.00 0.00 0.00 78 1014.6
20260505194301 49 30 2.0 6.0 0.00 0.00 0.00 78 1014.5
20260505193802 49 90 2.0 6.0 0.00 0.00 0.00 78 1014.5
20260505193258 50 70 2.0 5.0 0.00 0.00 0.00 78 1014.5
20260505192757 50 49 2.0 7.0 0.00 0.00 0.00 78 1014.4
20260505192258 50 0 3.0 7.0 0.00 0.00 0.00 78 1014.3
20260505191757 50 0 2.0 6.0 0.00 0.00 0.00 78 1014.2
20260505191258 50 355 2.0 6.0 0.00 0.00 0.00 78 1014.3
20260505190758 50 0 2.0 8.0 0.00 0.00 0.00 78 1014.3
20260505190258 50 346 3.0 8.0 0.00 0.00 0.00 78 1014.2
20260505185756 50 342 3.0 8.0 0.00 0.00 0.00 78 1014.2
20260505184257 51 344 3.0 7.0 0.00 0.00 0.00 78 1014.0
20260505183257 51 328 2.0 6.0 0.00 0.00 0.00 78 1014.0
20260505182257 51 359 3.0 8.0 0.00 0.00 0.00 78 1013.9
20260505181257 51 348 4.0 11.0 0.00 0.00 0.00 77 1013.9
20260505180758 51 33 3.0 7.0 0.00 0.00 0.00 77 1013.9
20260505180253 51 1 3.0 8.0 0.00 0.00 0.00 77 1013.9